• In Schweiz
  • Länderverzeichnis
  • Für 7 Tage
  • Wassertemperatur
  • Satellitenkarten
  • Wetterkarte
  • Widgets
  • user-avatar
    Anmelden

    Stündliche Wetter Tonton

    Heute, 14 Dezember, Donnerstag

    Zeit Temperatur Niederschläge Wind Luftdruck Luftfeuchtigkeit
    00:00 +2°C° 0 mm 10 m/S 746 mmHg 76%
    01:00 +2°C° 0,2 mm 10 m/S 745 mmHg 74%
    02:00 +2°C° 0,2 mm 11 m/S 745 mmHg 73%
    03:00 +2°C° 0,2 mm 11 m/S 745 mmHg 72%
    04:00 +2°C° 0,4 mm 10 m/S 745 mmHg 72%
    05:00 +2°C° 0,4 mm 10 m/S 744 mmHg 72%
    06:00 +2°C° 0 mm 8 m/S 744 mmHg 78%
    07:00 +2°C° 0,2 mm 8 m/S 744 mmHg 77%
    08:00 +2°C° 0,2 mm 8 m/S 744 mmHg 76%
    09:00 +2°C° 0,2 mm 8 m/S 743 mmHg 76%
    10:00 +4°C° 0,3 mm 8 m/S 743 mmHg 74%
    11:00 +4°C° 0,3 mm 8 m/S 743 mmHg 71%
    12:00 +5°C° 0,3 mm 9 m/S 743 mmHg 69%
    13:00 +4°C° 0,1 mm 8 m/S 742 mmHg 71%
    14:00 +4°C° 0,1 mm 8 m/S 741 mmHg 73%
    15:00 +4°C° 0,1 mm 7 m/S 741 mmHg 74%
    16:00 +4°C° 0,1 mm 7 m/S 741 mmHg 76%
    17:00 +3°C° 0,1 mm 7 m/S 740 mmHg 78%
    18:00 +3°C° 0,1 mm 7 m/S 740 mmHg 80%
    19:00 +2°C° 0,2 mm 8 m/S 740 mmHg 79%
    20:00 +2°C° 0,2 mm 8 m/S 741 mmHg 79%
    21:00 +2°C° 0,2 mm 8 m/S 741 mmHg 79%
    22:00 +3°C° 0 mm 7 m/S 741 mmHg 79%
    23:00 +3°C° 0 mm 7 m/S 742 mmHg 80%

    Morgen, 15 Dezember, Freitag

    Zeit Temperatur Niederschläge Wind Luftdruck Luftfeuchtigkeit
    00:00 +3°C° 0 mm 6 m/S 742 mmHg 81%
    01:00 +3°C° 0 mm 7 m/S 742 mmHg 82%
    02:00 +3°C° 0 mm 7 m/S 742 mmHg 82%
    03:00 +3°C° 0 mm 7 m/S 743 mmHg 83%
    04:00 +2°C° 0,4 mm 8 m/S 743 mmHg 82%
    05:00 +4°C° 0,4 mm 8 m/S 744 mmHg 82%
    06:00 +3°C° 0,4 mm 9 m/S 744 mmHg 81%
    07:00 +2°C° 0 mm 9 m/S 745 mmHg 80%
    08:00 +2°C° 0 mm 9 m/S 746 mmHg 79%
    09:00 +1°C° 0 mm 9 m/S 748 mmHg 79%
    10:00 +2°C° 0 mm 8 m/S 749 mmHg 75%
    11:00 +4°C° 0 mm 8 m/S 750 mmHg 72%
    12:00 +4°C° 0 mm 7 m/S 751 mmHg 69%
    13:00 +4°C° 0 mm 7 m/S 751 mmHg 71%
    14:00 +4°C° 0 mm 6 m/S 752 mmHg 73%
    15:00 +4°C° 0 mm 6 m/S 753 mmHg 75%
    16:00 +4°C° 0 mm 6 m/S 753 mmHg 77%
    17:00 +3°C° 0 mm 6 m/S 754 mmHg 80%
    18:00 +3°C° 0 mm 6 m/S 755 mmHg 83%
    19:00 +2°C° 0 mm 6 m/S 756 mmHg 82%
    20:00 +2°C° 0 mm 6 m/S 757 mmHg 81%
    21:00 +2°C° 0 mm 5 m/S 758 mmHg 80%
    22:00 +1°C° 0 mm 5 m/S 758 mmHg 80%
    23:00 +1°C° 0 mm 5 m/S 759 mmHg 80%

    übermorgen, 16 Dezember, Samstag

    Zeit Temperatur Niederschläge Wind Luftdruck Luftfeuchtigkeit
    00:00 +1°C° 0 mm 4 m/S 759 mmHg 80%
    01:00 +1°C° 0 mm 4 m/S 760 mmHg 80%
    02:00 +1°C° 0 mm 4 m/S 760 mmHg 80%
    03:00 +1°C° 0 mm 4 m/S 761 mmHg 80%
    04:00 +1°C° 0 mm 4 m/S 761 mmHg 81%
    05:00 +1°C° 0 mm 4 m/S 761 mmHg 82%
    06:00 +1°C° 0 mm 4 m/S 761 mmHg 83%
    07:00 +1°C° 0 mm 4 m/S 762 mmHg 83%
    08:00 +1°C° 0 mm 5 m/S 763 mmHg 83%
    09:00 +2°C° 0 mm 5 m/S 763 mmHg 83%
    10:00 +3°C° 0,1 mm 5 m/S 763 mmHg 81%
    11:00 +4°C° 0,1 mm 6 m/S 764 mmHg 80%
    12:00 +5°C° 0,1 mm 6 m/S 764 mmHg 79%
    13:00 +5°C° 0,2 mm 6 m/S 764 mmHg 80%
    14:00 +4°C° 0,2 mm 6 m/S 764 mmHg 81%
    15:00 +5°C° 0,2 mm 5 m/S 764 mmHg 82%
    16:00 +5°C° 0,2 mm 5 m/S 765 mmHg 84%
    17:00 +5°C° 0,2 mm 5 m/S 765 mmHg 86%
    18:00 +5°C° 0,2 mm 4 m/S 766 mmHg 89%
    19:00 +4°C° 0,1 mm 4 m/S 766 mmHg 89%
    20:00 +4°C° 0,1 mm 4 m/S 767 mmHg 89%
    21:00 +4°C° 0,1 mm 4 m/S 767 mmHg 89%
    22:00 +4°C° 0 mm 3 m/S 767 mmHg 89%
    23:00 +4°C° 0 mm 3 m/S 768 mmHg 89%

    17 Dezember, Sonntag

    Zeit Temperatur Niederschläge Wind Luftdruck Luftfeuchtigkeit
    00:00 +4°C° 0 mm 3 m/S 768 mmHg 90%
    01:00 +4°C° 0 mm 3 m/S 768 mmHg 90%
    02:00 +4°C° 0 mm 3 m/S 768 mmHg 91%
    03:00 +4°C° 0 mm 3 m/S 768 mmHg 91%
    04:00 +4°C° 0 mm 3 m/S 768 mmHg 92%
    05:00 +4°C° 0 mm 3 m/S 768 mmHg 92%
    06:00 +4°C° 0 mm 3 m/S 768 mmHg 92%
    07:00 +4°C° 0 mm 3 m/S 769 mmHg 92%
    08:00 +4°C° 0 mm 3 m/S 769 mmHg 92%
    09:00 +5°C° 0 mm 3 m/S 769 mmHg 91%
    10:00 +6°C° 0 mm 4 m/S 769 mmHg 89%
    11:00 +7°C° 0 mm 4 m/S 769 mmHg 86%
    12:00 +8°C° 0 mm 5 m/S 769 mmHg 83%
    13:00 +8°C° 0 mm 5 m/S 769 mmHg 84%
    14:00 +8°C° 0 mm 5 m/S 769 mmHg 85%
    15:00 +8°C° 0 mm 6 m/S 769 mmHg 86%
    16:00 +8°C° 0 mm 6 m/S 769 mmHg 87%
    17:00 +7°C° 0 mm 5 m/S 769 mmHg 88%
    18:00 +7°C° 0 mm 5 m/S 769 mmHg 89%
    19:00 +7°C° 0 mm 5 m/S 769 mmHg 89%
    20:00 +7°C° 0 mm 5 m/S 770 mmHg 89%
    21:00 +7°C° 0 mm 5 m/S 770 mmHg 90%
    22:00 +5°C° 0 mm 6 m/S 770 mmHg 90%
    23:00 +5°C° 0 mm 6 m/S 770 mmHg 90%

    18 Dezember, Montag

    Zeit Temperatur Niederschläge Wind Luftdruck Luftfeuchtigkeit
    00:00 +5°C° 0 mm 6 m/S 770 mmHg 91%
    01:00 +7°C° 0 mm 6 m/S 770 mmHg 91%
    02:00 +7°C° 0 mm 6 m/S 770 mmHg 91%
    03:00 +7°C° 0 mm 6 m/S 770 mmHg 91%
    04:00 +7°C° 0 mm 6 m/S 770 mmHg 91%
    05:00 +7°C° 0 mm 6 m/S 770 mmHg 90%
    06:00 +8°C° 0 mm 5 m/S 770 mmHg 90%
    07:00 +8°C° 0 mm 6 m/S 770 mmHg 90%
    08:00 +8°C° 0 mm 6 m/S 770 mmHg 90%
    09:00 +9°C° 0 mm 6 m/S 770 mmHg 90%
    10:00 +9°C° 0 mm 6 m/S 770 mmHg 90%
    11:00 +10°C° 0 mm 7 m/S 770 mmHg 89%
    12:00 +10°C° 0 mm 7 m/S 770 mmHg 88%
    13:00 +10°C° 0 mm 7 m/S 770 mmHg 89%
    14:00 +10°C° 0 mm 6 m/S 770 mmHg 90%
    15:00 +10°C° 0 mm 6 m/S 770 mmHg 90%
    16:00 +10°C° 0 mm 5 m/S 770 mmHg 92%
    17:00 +10°C° 0 mm 5 m/S 770 mmHg 94%
    18:00 +11°C° 0 mm 4 m/S 770 mmHg 95%
    19:00 +11°C° 0,1 mm 4 m/S 770 mmHg 96%
    20:00 +11°C° 0,1 mm 3 m/S 771 mmHg 96%
    21:00 +11°C° 0,1 mm 3 m/S 771 mmHg 97%
    22:00 +11°C° 0 mm 3 m/S 771 mmHg 97%
    23:00 +11°C° 0 mm 3 m/S 771 mmHg 97%

    19 Dezember, Dienstag

    Zeit Temperatur Niederschläge Wind Luftdruck Luftfeuchtigkeit
    00:00 +11°C° 0 mm 4 m/S 771 mmHg 97%
    01:00 +11°C° 0 mm 4 m/S 771 mmHg 96%
    02:00 +11°C° 0 mm 4 m/S 771 mmHg 96%
    03:00 +11°C° 0 mm 3 m/S 771 mmHg 96%
    04:00 +11°C° 0,1 mm 4 m/S 771 mmHg 96%
    05:00 +12°C° 0,1 mm 4 m/S 771 mmHg 96%
    06:00 +12°C° 0,1 mm 4 m/S 771 mmHg 96%
    07:00 +12°C° 0,1 mm 4 m/S 771 mmHg 96%
    08:00 +12°C° 0,1 mm 4 m/S 771 mmHg 97%
    09:00 +12°C° 0,1 mm 4 m/S 772 mmHg 97%
    10:00 +13°C° 0 mm 4 m/S 772 mmHg 95%
    11:00 +13°C° 0 mm 4 m/S 772 mmHg 94%
    12:00 +14°C° 0 mm 4 m/S 772 mmHg 93%
    13:00 +14°C° 0 mm 4 m/S 772 mmHg 93%
    14:00 +13°C° 0 mm 4 m/S 772 mmHg 93%
    15:00 +13°C° 0 mm 5 m/S 772 mmHg 93%
    16:00 +13°C° 0 mm 4 m/S 772 mmHg 93%
    17:00 +13°C° 0 mm 4 m/S 772 mmHg 94%
    18:00 +12°C° 0 mm 4 m/S 772 mmHg 94%
    19:00 +12°C° 0 mm 4 m/S 772 mmHg 95%
    20:00 +12°C° 0 mm 4 m/S 772 mmHg 95%
    21:00 +12°C° 0 mm 4 m/S 773 mmHg 95%
    22:00 +11°C° 0 mm 4 m/S 772 mmHg 95%
    23:00 +11°C° 0 mm 4 m/S 772 mmHg 95%
    Mehr zeigen